This is the latest recevied weather packets stored in our database for station/object XE2KK-10. If no packets are shown the sender has not sent any weather packets the latest 10 day(s).
| Time | Temp. | Humidity | Pressure | Rain* | Wind** | Luminosity | Snow |
|---|---|---|---|---|---|---|---|
| 1777672752 | 18.89° C | 89% | 1011.5 hPa | 0 mm | - | 57 W/m² | - |
| 1777672453 | 18.89° C | 88% | 1011.2 hPa | 0 mm | - | 55 W/m² | - |
| 1777672153 | 19.44° C | 86% | 1011 hPa | 0 mm | - | 71 W/m² | - |
| 1777671853 | 20° C | 83% | 1011.1 hPa | 0 mm | - | 47 W/m² | - |
| 1777671553 | 20° C | 80% | 1011 hPa | 0 mm | - | 51 W/m² | - |
| 1777671252 | 20.56° C | 79% | 1011 hPa | 0 mm | - | 55 W/m² | - |
| 1777670952 | 20.56° C | 79% | 1011 hPa | 0 mm | - | 49 W/m² | - |
| 1777670653 | 21.11° C | 77% | 1010.6 hPa | 0 mm | - | 42 W/m² | - |
| 1777670353 | 21.11° C | 76% | 1010.5 hPa | 0 mm | - | 57 W/m² | - |
| 1777670053 | 21.67° C | 75% | 1010.6 hPa | 0 mm | - | 64 W/m² | - |
| 1777669753 | 21.67° C | 74% | 1010.6 hPa | 0 mm | - | 75 W/m² | - |
| 1777669452 | 21.67° C | 74% | 1010.6 hPa | 0 mm | - | 104 W/m² | - |
| 1777669152 | 21.67° C | 75% | 1010.7 hPa | 0 mm | - | 111 W/m² | - |
| 1777668853 | 21.11° C | 75% | 1010.6 hPa | 0 mm | - | 105 W/m² | - |
| 1777668553 | 21.67° C | 75% | 1010.6 hPa | 0 mm | - | 93 W/m² | - |
| 1777668253 | 21.67° C | 75% | 1010.3 hPa | 0 mm | - | 120 W/m² | - |
| 1777667953 | 21.67° C | 75% | 1010.6 hPa | 0 mm | - | 122 W/m² | - |
| 1777667652 | 21.67° C | 75% | 1010.4 hPa | 0 mm | - | 143 W/m² | - |
| 1777667352 | 21.67° C | 76% | 1010.6 hPa | 0 mm | - | 140 W/m² | - |
| 1777667052 | 21.67° C | 75% | 1010.7 hPa | 0 mm | - | 128 W/m² | - |
| 1777666753 | 21.67° C | 75% | 1010.9 hPa | 0 mm | - | 196 W/m² | - |
| 1777666453 | 21.67° C | 75% | 1010.8 hPa | 0 mm | - | 141 W/m² | - |
| 1777666153 | 21.67° C | 76% | 1010.7 hPa | 0 mm | - | 238 W/m² | - |
| 1777665852 | 21.67° C | 75% | 1010.6 hPa | 0 mm | - | 246 W/m² | - |
| 1777665552 | 21.11° C | 76% | 1010.4 hPa | 0 mm | - | 280 W/m² | - |
* Rain latest hour (hover to see other rain measurements)
** Current wind speed in m/s (hover to see current wind gust speed)